START_TIME,STEP,MOV.,M6,t_acc.,M7,t_acc.,M19,t_acc.,H36,t_acc.
1979-07-30 03:00:26.170 ,1,0,0.,12.0,0.,12.0,0.,12.0,0.,12.0
1979-07-30 03:00:38.170 ,1,0,0.,12.0,0.,12.0,0.,12.0,0.,12.0
1979-07-30 03:00:50.170 ,2,1,0.,12.0,0.,12.0,0.,12.0,0.,12.0
1979-07-30 03:01:02.170 ,2,1,0.,12.0,0.,12.0,0.,12.0,0.,12.0
1979-07-30 03:01:14.170 ,2,0,0.,12.0,0.,12.0,0.,12.0,0.,12.0
1979-07-30 03:01:26.170 ,2,0,0.,12.0,0.,12.0,0.,12.0,0.,12.0
1979-07-30 03:01:38.170 ,3,1,0.,12.0,0.,12.0,0.,12.0,0.,12.0
1979-07-30 03:01:50.170 ,3,1,0.,12.0,0.,12.0,0.,12.0,0.,12.0
1979-07-30 03:02:02.170 ,3,0,0.,12.0,0.,12.0,0.,12.0,0.,12.0
1979-07-30 03:02:14.170 ,3,0,0.,12.0,0.,12.0,0.,12.0,0.,12.0
1979-07-30 03:02:26.170 ,4,1,0.,12.0,0.,12.0,0.,12.0,0.,12.0
1979-07-30 03:02:38.170 ,4,1,0.,12.0,0.,12.0,0.,12.0,0.,12.0
1979-07-30 03:02:50.170 ,4,0,0.,12.0,0.,12.0,0.,12.0,0.,12.0
1979-07-30 03:03:02.170 ,4,0,0.,12.0,0.,12.0,0.,12.0,0.,12.0
1979-07-30 03:03:14.170 ,5,1,0.,12.0,0.,12.0,0.,12.0,0.,12.0
1979-07-30 03:03:26.170 ,5,1,0.,12.0,0.,12.0,0.,12.0,0.,12.0
1979-07-30 03:03:38.170 ,5,0,0.,12.0,0.,12.0,0.,12.0,0.,12.0
1979-07-30 03:03:50.170 ,5,0,0.,12.0,0.,12.0,0.,12.0,0.,12.0
1979-07-30 03:04:02.170 ,6,1,0.,12.0,0.,12.0,0.,12.0,0.,12.0
1979-07-30 03:04:14.170 ,6,1,0.,12.0,0.,12.0,0.,12.0,0.,12.0
1979-07-30 03:04:26.170 ,6,0,0.,12.0,0.,12.0,0.,12.0,0.,12.0
1979-07-30 03:04:38.170 ,6,0,0.,12.0,0.,12.0,0.,12.0,0.,12.0
1979-07-30 03:04:50.170 ,7,1,0.,12.0,0.,12.0,0.,12.0,0.,12.0
1979-07-30 03:05:02.170 ,7,1,0.,12.0,0.,12.0,0.,12.0,0.,12.0
1979-07-30 03:05:14.170 ,7,0,0.,12.0,0.,12.0,0.,12.0,0.,12.0
1979-07-30 03:05:26.170 ,7,0,0.,12.0,0.,12.0,0.,12.0,0.,12.0
1979-07-30 03:05:38.170 ,7,1,0.,12.0,0.,12.0,0.,12.0,0.,12.0
1979-07-30 03:05:50.170 ,7,1,0.,12.0,0.,12.0,0.,12.0,0.,12.0
1979-07-30 03:06:02.170 ,7,0,0.,12.0,0.,12.0,0.,12.0,0.,12.0
1979-07-30 03:06:14.170 ,7,0,0.,12.0,0.,12.0,0.,12.0,0.,12.0
1979-07-30 03:06:26.170 ,6,1,0.,12.0,0.,12.0,0.,12.0,0.,12.0
1979-07-30 03:06:38.170 ,6,1,0.,12.0,0.,12.0,0.,12.0,0.,12.0
1979-07-30 03:06:50.170 ,6,0,0.,12.0,0.,12.0,0.,12.0,0.,12.0
1979-07-30 03:07:02.170 ,6,0,0.,12.0,0.,12.0,0.,12.0,0.,12.0
1979-07-30 03:07:14.170 ,5,1,0.,12.0,0.,12.0,0.,12.0,0.,12.0
1979-07-30 03:07:26.170 ,5,1,0.,12.0,0.,12.0,0.,12.0,0.,12.0
1979-07-30 03:07:38.170 ,5,0,0.,12.0,0.,12.0,0.,12.0,0.,12.0
1979-07-30 03:07:50.170 ,5,0,0.,12.0,0.,12.0,0.,12.0,0.,12.0
1979-07-30 03:08:02.170 ,4,1,0.,12.0,0.,12.0,0.,12.0,0.,12.0
1979-07-30 03:08:14.170 ,4,1,0.,12.0,0.,12.0,0.,12.0,0.,12.0
1979-07-30 03:08:26.170 ,4,0,0.,12.0,0.,12.0,0.,12.0,0.,12.0
1979-07-30 03:08:38.170 ,4,0,0.,12.0,0.,12.0,0.,12.0,0.,12.0
1979-07-30 03:08:50.160 ,3,1,0.,12.0,0.,12.0,0.,12.0,0.,12.0
1979-07-30 03:09:02.170 ,3,1,0.,12.0,0.,12.0,0.,12.0,0.,12.0
1979-07-30 03:09:14.160 ,3,0,0.,12.0,0.,12.0,0.,12.0,0.,12.0
1979-07-30 03:09:26.170 ,3,0,0.,12.0,0.,12.0,0.,12.0,0.,12.0
1979-07-30 03:09:38.160 ,2,1,0.,12.0,0.,12.0,0.,12.0,0.,12.0
1979-07-30 03:09:50.170 ,2,1,0.,12.0,0.,12.0,0.,12.0,0.,12.0
1979-07-30 03:10:02.160 ,2,0,0.,12.0,0.,12.0,0.,12.0,0.,12.0
1979-07-30 03:10:14.170 ,2,0,0.,12.0,0.,12.0,0.,12.0,0.,12.0
1979-07-30 03:10:26.160 ,1,1,0.,12.0,0.,12.0,0.,12.0,0.,12.0
1979-07-30 03:10:38.170 ,1,1,0.,12.0,0.,12.0,0.,12.0,0.,12.0
1979-07-30 03:10:50.160 ,1,0,0.,12.0,0.,12.0,0.,12.0,0.,12.0
1979-07-30 03:11:02.170 ,1,0,0.,12.0,0.,12.0,0.,12.0,0.,12.0
1979-07-30 03:11:14.160 ,0,1,0.,12.0,0.,12.0,0.,12.0,0.,12.0
1979-07-30 03:11:26.170 ,0,1,0.,12.0,0.,12.0,0.,12.0,0.,12.0
1979-07-30 03:11:38.160 ,0,0,0.,12.0,0.,12.0,0.,12.0,0.,12.0
1979-07-30 03:11:50.170 ,0,0,0.,12.0,0.,12.0,0.,12.0,0.,12.0
1979-07-30 03:12:02.160 ,0,1,0.,12.0,0.,12.0,0.,12.0,0.,12.0
1979-07-30 03:12:14.160 ,0,1,0.,12.0,0.,12.0,0.,12.0,0.,12.0
1979-07-30 03:12:26.160 ,0,0,0.,12.0,0.,12.0,0.,12.0,0.,12.0
1979-07-30 03:12:38.170 ,0,0,0.,12.0,0.,12.0,0.,12.0,0.,12.0
1979-07-30 03:12:50.160 ,0,0,0.,12.0,0.,12.0,0.,12.0,0.,12.0
1979-07-30 03:13:02.170 ,0,0,0.,12.0,0.,12.0,0.,12.0,0.,12.0
1979-07-30 03:13:14.160 ,0,0,0.,12.0,0.,12.0,0.,12.0,0.,12.0
1979-07-30 03:13:26.170 ,0,0,0.,12.0,0.,12.0,0.,12.0,0.,12.0
1979-07-30 03:13:38.160 ,2,1,0.,12.0,0.,12.0,0.,12.0,0.,12.0
1979-07-30 03:13:50.170 ,2,1,0.,12.0,0.,12.0,0.,12.0,0.,12.0
1979-07-30 03:14:02.160 ,2,0,0.,12.0,0.,12.0,0.,12.0,0.,12.0
1979-07-30 03:14:14.160 ,2,0,0.,12.0,0.,12.0,0.,12.0,0.,12.0
1979-07-30 03:14:26.160 ,3,1,0.,12.0,0.,12.0,0.,12.0,0.,12.0
1979-07-30 03:14:38.160 ,3,1,0.,12.0,0.,12.0,0.,12.0,0.,12.0
1979-07-30 03:14:50.160 ,3,0,0.,12.0,0.,12.0,0.,12.0,0.,12.0
1979-07-30 03:15:02.160 ,3,0,0.,12.0,0.,12.0,0.,12.0,0.,12.0
1979-07-30 03:15:14.160 ,4,1,0.,12.0,0.,12.0,0.,12.0,0.,12.0
1979-07-30 03:15:26.160 ,4,1,0.,12.0,0.,12.0,0.,12.0,0.,12.0
1979-07-30 03:15:38.160 ,4,0,0.,12.0,0.,12.0,0.,12.0,0.,12.0
1979-07-30 03:15:50.160 ,4,0,0.,12.0,0.,12.0,0.,12.0,0.,12.0
1979-07-30 03:16:02.160 ,5,1,0.,12.0,0.,12.0,0.,12.0,0.,12.0
1979-07-30 03:16:14.160 ,5,1,0.,12.0,0.,12.0,0.,12.0,0.,12.0
1979-07-30 03:16:26.160 ,5,0,0.,12.0,0.,12.0,0.,12.0,0.,12.0
1979-07-30 03:16:38.160 ,5,0,0.,12.0,0.,12.0,0.,12.0,0.,12.0
1979-07-30 03:16:50.160 ,6,1,0.,12.0,0.,12.0,0.,12.0,0.,12.0
1979-07-30 03:17:02.160 ,6,1,0.,12.0,0.,12.0,0.,12.0,0.,12.0
1979-07-30 03:17:14.160 ,6,0,0.,12.0,0.,12.0,0.,12.0,0.,12.0
1979-07-30 03:17:26.160 ,6,0,0.,12.0,0.,12.0,0.,12.0,0.,12.0
1979-07-30 03:17:38.160 ,7,1,0.,12.0,0.,12.0,0.,12.0,0.,12.0
1979-07-30 03:17:50.160 ,7,1,0.,12.0,0.,12.0,0.,12.0,0.,12.0
1979-07-30 03:18:02.160 ,7,0,0.,12.0,0.,12.0,0.,12.0,0.,12.0
1979-07-30 03:18:14.160 ,7,0,0.,12.0,0.,12.0,0.,12.0,0.,12.0
1979-07-30 03:18:26.160 ,7,1,0.,12.0,0.,12.0,0.,12.0,0.,12.0
1979-07-30 03:18:38.160 ,7,1,0.,12.0,0.,12.0,0.,12.0,0.,12.0
1979-07-30 03:18:50.160 ,7,0,0.,12.0,0.,12.0,0.,12.0,0.,12.0
1979-07-30 03:19:02.160 ,7,0,0.,12.0,0.,12.0,0.,12.0,0.,12.0
1979-07-30 03:19:14.160 ,6,1,0.,12.0,0.,12.0,0.,12.0,0.,12.0
1979-07-30 03:19:26.160 ,6,1,0.,12.0,0.,12.0,0.,12.0,0.,12.0
1979-07-30 03:19:38.160 ,6,0,0.,12.0,0.,12.0,0.,12.0,0.,12.0
1979-07-30 03:19:50.160 ,6,0,0.,12.0,0.,12.0,0.,12.0,0.,12.0
1979-07-30 03:20:02.160 ,5,1,0.,12.0,0.,12.0,0.,12.0,0.,12.0
1979-07-30 03:20:14.160 ,5,1,0.,12.0,0.,12.0,0.,12.0,0.,12.0
1979-07-30 03:20:26.160 ,5,0,0.,12.0,0.,12.0,0.,12.0,0.,12.0
1979-07-30 03:20:38.160 ,5,0,0.,12.0,0.,12.0,0.,12.0,0.,12.0
1979-07-30 03:20:50.160 ,4,1,0.,12.0,0.,12.0,0.,12.0,0.,12.0
1979-07-30 03:21:02.160 ,4,1,0.,12.0,0.,12.0,0.,12.0,0.,12.0
1979-07-30 03:21:14.160 ,4,0,0.,12.0,0.,12.0,0.,12.0,0.,12.0
1979-07-30 03:21:26.160 ,4,0,0.,12.0,0.,12.0,0.,12.0,0.,12.0
1979-07-30 03:21:38.160 ,3,1,0.,12.0,0.,12.0,0.,12.0,0.,12.0
1979-07-30 03:21:50.160 ,3,1,0.,12.0,0.,12.0,0.,12.0,0.,12.0
1979-07-30 03:22:02.160 ,3,0,0.,12.0,0.,12.0,0.,12.0,0.,12.0
1979-07-30 03:22:14.160 ,3,0,0.,12.0,0.,12.0,0.,12.0,0.,12.0
1979-07-30 03:22:26.160 ,2,1,0.,12.0,0.,12.0,0.,12.0,0.,12.0
1979-07-30 03:22:38.160 ,2,1,0.,12.0,0.,12.0,0.,12.0,0.,12.0
1979-07-30 03:22:50.160 ,2,0,0.,12.0,0.,12.0,0.,12.0,0.,12.0
1979-07-30 03:23:02.160 ,2,0,0.,12.0,0.,12.0,0.,12.0,0.,12.0
1979-07-30 03:23:14.160 ,0,0,0.,12.0,0.,12.0,0.,12.0,0.,12.0
1979-07-30 03:23:26.160 ,0,0,0.,12.0,0.,12.0,0.,12.0,0.,12.0
1979-07-30 03:23:38.160 ,0,0,0.,12.0,0.,12.0,0.,12.0,0.,12.0
1979-07-30 03:23:50.160 ,0,0,0.,12.0,0.,12.0,0.,12.0,0.,12.0
1979-07-30 03:24:02.160 ,0,1,0.,12.0,0.,12.0,0.,12.0,0.,12.0
1979-07-30 03:24:14.160 ,0,1,0.,12.0,0.,12.0,0.,12.0,0.,12.0
1979-07-30 03:24:26.160 ,0,0,0.,12.0,0.,12.0,0.,12.0,0.,12.0
1979-07-30 03:24:38.160 ,0,0,0.,12.0,0.,12.0,0.,12.0,0.,12.0
1979-07-30 03:24:50.160 ,0,1,0.,12.0,0.,12.0,0.,12.0,0.,12.0
1979-07-30 03:25:02.160 ,0,1,0.,12.0,0.,12.0,0.,12.0,0.,12.0
1979-07-30 03:25:14.160 ,0,0,0.,12.0,0.,12.0,0.,12.0,0.,12.0
1979-07-30 03:25:26.160 ,0,0,0.,12.0,0.,12.0,0.,12.0,0.,12.0
1979-07-30 03:25:38.160 ,1,1,0.,12.0,0.,12.0,0.,12.0,0.,12.0
1979-07-30 03:25:50.160 ,1,1,0.,12.0,0.,12.0,0.,12.0,0.,12.0
1979-07-30 03:26:02.160 ,1,0,0.,12.0,0.,12.0,0.,12.0,0.,12.0
1979-07-30 03:26:14.160 ,1,0,0.,12.0,0.,12.0,0.,12.0,0.,12.0
1979-07-30 03:26:26.160 ,2,1,0.,12.0,0.,12.0,0.,12.0,0.,12.0
1979-07-30 03:26:38.160 ,2,1,0.,12.0,0.,12.0,0.,12.0,0.,12.0
1979-07-30 03:26:50.160 ,2,0,0.,12.0,0.,12.0,0.,12.0,0.,12.0
1979-07-30 03:27:02.160 ,2,0,0.,12.0,0.,12.0,0.,12.0,0.,12.0
1979-07-30 03:27:14.160 ,3,1,0.,12.0,0.,12.0,0.,12.0,0.,12.0
1979-07-30 03:27:26.160 ,3,1,0.,12.0,0.,12.0,0.,12.0,0.,12.0
1979-07-30 03:27:38.160 ,3,0,0.,12.0,0.,12.0,0.,12.0,0.,12.0
1979-07-30 03:27:50.160 ,3,0,0.,12.0,0.,12.0,0.,12.0,0.,12.0
1979-07-30 03:28:02.160 ,4,1,0.,12.0,0.,12.0,0.,12.0,0.,12.0
1979-07-30 03:28:14.160 ,4,1,0.,12.0,0.,12.0,0.,12.0,0.,12.0
1979-07-30 03:28:26.160 ,4,0,0.,12.0,0.,12.0,0.,12.0,0.,12.0
1979-07-30 03:28:38.160 ,4,0,0.,12.0,0.,12.0,0.,12.0,0.,12.0
1979-07-30 03:28:50.160 ,5,1,0.,12.0,0.,12.0,0.,12.0,0.,12.0
1979-07-30 03:29:02.160 ,5,1,0.,12.0,0.,12.0,0.,12.0,0.,12.0
1979-07-30 03:29:14.160 ,5,0,0.,12.0,0.,12.0,0.,12.0,0.,12.0
1979-07-30 03:29:26.160 ,5,0,0.,12.0,0.,12.0,0.,12.0,0.,12.0
1979-07-30 03:29:38.160 ,6,1,0.,12.0,0.,12.0,0.,12.0,0.,12.0
1979-07-30 03:29:50.160 ,6,1,0.,12.0,0.,12.0,0.,12.0,0.,12.0
1979-07-30 03:30:02.160 ,6,0,0.,12.0,0.,12.0,0.,12.0,0.,12.0
1979-07-30 03:30:14.160 ,6,0,0.,12.0,0.,12.0,0.,12.0,0.,12.0
1979-07-30 03:30:26.160 ,7,0,0.,12.0,0.,12.0,0.,12.0,0.,12.0
1979-07-30 03:30:38.160 ,7,0,0.,12.0,0.,12.0,0.,12.0,0.,12.0
1979-07-30 03:30:50.160 ,7,0,0.,12.0,0.,12.0,0.,12.0,0.,12.0
1979-07-30 03:31:02.160 ,7,0,0.,12.0,0.,12.0,0.,12.0,0.,12.0
1979-07-30 03:31:14.160 ,4,1,0.,12.0,0.,12.0,0.,12.0,0.,12.0
1979-07-30 03:31:26.160 ,4,1,0.,12.0,0.,12.0,0.,12.0,0.,12.0
1979-07-30 03:31:38.160 ,0,1,0.,12.0,0.,12.0,0.,12.0,0.,12.0
1979-07-30 03:31:50.160 ,0,1,0.,12.0,0.,12.0,0.,12.0,0.,12.0
1979-07-30 03:32:02.160 ,3,1,0.,12.0,0.,12.0,0.,12.0,0.,12.0
1979-07-30 03:32:14.160 ,3,1,0.,12.0,0.,12.0,0.,12.0,0.,12.0
1979-07-30 03:32:26.160 ,7,1,0.,12.0,0.,12.0,0.,12.0,0.,12.0
1979-07-30 03:32:38.160 ,7,1,0.,12.0,0.,12.0,0.,12.0,0.,12.0
1979-07-30 03:32:50.160 ,4,1,0.,12.0,0.,12.0,0.,12.0,0.,12.0
1979-07-30 03:33:02.160 ,4,1,0.,12.0,0.,12.0,0.,12.0,0.,12.0
1979-07-30 03:33:14.160 ,0,1,0.,12.0,0.,12.0,0.,12.0,0.,12.0
1979-07-30 03:33:26.160 ,0,1,0.,12.0,0.,12.0,0.,12.0,0.,12.0
1979-07-30 03:33:38.160 ,3,1,0.,12.0,0.,12.0,0.,12.0,0.,12.0
1979-07-30 03:33:50.160 ,3,1,0.,12.0,0.,12.0,0.,12.0,0.,12.0
1979-07-30 03:34:02.160 ,7,1,0.,12.0,0.,12.0,0.,12.0,0.,12.0
1979-07-30 03:34:14.160 ,7,1,0.,12.0,0.,12.0,0.,12.0,0.,12.0
1979-07-30 03:34:26.160 ,4,1,0.,12.0,0.,12.0,0.,12.0,0.,12.0
1979-07-30 03:34:38.160 ,4,1,0.,12.0,0.,12.0,0.,12.0,0.,12.0
1979-07-30 03:34:50.160 ,0,1,0.,12.0,0.,12.0,0.,12.0,0.,12.0
1979-07-30 03:35:02.160 ,0,1,0.,12.0,0.,12.0,0.,12.0,0.,12.0
1979-07-30 03:35:14.160 ,3,1,0.,12.0,0.,12.0,0.,12.0,0.,12.0
1979-07-30 03:35:26.160 ,3,1,0.,12.0,0.,12.0,0.,12.0,0.,12.0
1979-07-30 03:35:38.160 ,7,1,0.,12.0,0.,12.0,0.,12.0,0.,12.0
1979-07-30 03:35:50.160 ,7,1,0.,12.0,0.,12.0,0.,12.0,0.,12.0
1979-07-30 03:36:02.160 ,4,1,0.,12.0,0.,12.0,0.,12.0,0.,12.0
1979-07-30 03:36:14.160 ,4,1,0.,12.0,0.,12.0,0.,12.0,0.,12.0
1979-07-30 03:36:26.160 ,0,1,0.,12.0,0.,12.0,0.,12.0,0.,12.0
1979-07-30 03:36:38.160 ,0,1,0.,12.0,0.,12.0,0.,12.0,0.,12.0
1979-07-30 03:37:38.160 ,0,0,0.,12.0,0.,12.0,0.,12.0,0.,12.0
1979-07-30 03:37:50.160 ,0,0,0.,12.0,0.,12.0,0.,12.0,0.,12.0
1979-07-30 03:38:02.160 ,0,1,0.,12.0,0.,12.0,0.,12.0,0.,12.0
1979-07-30 03:38:14.160 ,0,1,0.,12.0,0.,12.0,0.,12.0,0.,12.0
1979-07-30 03:38:26.160 ,3,1,0.,12.0,0.,12.0,0.,12.0,0.,12.0
1979-07-30 03:38:38.160 ,3,1,0.,12.0,0.,12.0,0.,12.0,0.,12.0
1979-07-30 03:38:50.160 ,7,1,0.,12.0,0.,12.0,0.,12.0,0.,12.0
1979-07-30 03:39:02.160 ,7,1,0.,12.0,0.,12.0,0.,12.0,0.,12.0
1979-07-30 03:39:14.160 ,4,1,0.,12.0,0.,12.0,0.,12.0,0.,12.0
1979-07-30 03:39:26.160 ,4,1,0.,12.0,0.,12.0,0.,12.0,0.,12.0
1979-07-30 03:39:38.160 ,0,1,0.,12.0,0.,12.0,0.,12.0,0.,12.0
1979-07-30 03:39:50.160 ,0,1,0.,12.0,0.,12.0,0.,12.0,0.,12.0
1979-07-30 03:40:02.160 ,3,1,0.,12.0,0.,12.0,0.,12.0,0.,12.0
1979-07-30 03:40:14.160 ,3,1,0.,12.0,0.,12.0,0.,12.0,0.,12.0
1979-07-30 03:40:26.160 ,7,1,0.,12.0,0.,12.0,0.,12.0,0.,12.0
1979-07-30 03:40:38.160 ,7,1,0.,12.0,0.,12.0,0.,12.0,0.,12.0
1979-07-30 03:40:50.160 ,4,1,0.,12.0,0.,12.0,0.,12.0,0.,12.0
1979-07-30 03:41:02.160 ,4,1,0.,12.0,0.,12.0,0.,12.0,0.,12.0
1979-07-30 03:41:14.160 ,0,1,0.,12.0,0.,12.0,0.,12.0,0.,12.0
1979-07-30 03:41:26.160 ,0,1,0.,12.0,0.,12.0,0.,12.0,0.,12.0
1979-07-30 03:41:38.160 ,0,0,0.,12.0,0.,12.0,0.,12.0,0.,12.0
1979-07-30 03:41:50.160 ,0,0,0.,12.0,0.,12.0,0.,12.0,0.,12.0
1979-07-30 03:42:02.160 ,0,0,0.,12.0,0.,12.0,0.,12.0,0.,12.0
1979-07-30 03:42:14.160 ,0,0,0.,12.0,0.,12.0,0.,12.0,0.,12.0
1979-07-30 03:42:26.160 ,5,1,0.,12.0,0.,12.0,0.,12.0,0.,12.0
1979-07-30 03:42:38.160 ,5,1,0.,12.0,0.,12.0,0.,12.0,0.,12.0
1979-07-30 03:42:50.160 ,5,0,0.,12.0,0.,12.0,0.,12.0,0.,12.0
1979-07-30 03:43:02.160 ,5,0,0.,12.0,0.,12.0,0.,12.0,0.,12.0
1979-07-30 03:43:14.160 ,4,1,0.,12.0,0.,12.0,0.,12.0,0.,12.0
1979-07-30 03:43:26.160 ,4,1,0.,12.0,0.,12.0,0.,12.0,0.,12.0
1979-07-30 03:43:38.160 ,4,0,0.,12.0,0.,12.0,0.,12.0,0.,12.0
1979-07-30 03:43:50.160 ,4,0,0.,12.0,0.,12.0,0.,12.0,0.,12.0
1979-07-30 03:44:02.160 ,3,1,0.,12.0,0.,12.0,0.,12.0,0.,12.0
1979-07-30 03:44:14.160 ,3,1,0.,12.0,0.,12.0,0.,12.0,0.,12.0
1979-07-30 03:44:26.160 ,3,0,0.,12.0,0.,12.0,0.,12.0,0.,12.0
1979-07-30 03:44:38.160 ,3,0,0.,12.0,0.,12.0,0.,12.0,0.,12.0
1979-07-30 03:44:50.160 ,2,1,0.,12.0,0.,12.0,0.,12.0,0.,12.0
1979-07-30 03:45:02.160 ,2,1,0.,12.0,0.,12.0,0.,12.0,0.,12.0
1979-07-30 03:45:14.160 ,2,0,0.,12.0,0.,12.0,0.,12.0,0.,12.0
1979-07-30 03:45:26.160 ,2,0,0.,12.0,0.,12.0,0.,12.0,0.,12.0
1979-07-30 03:45:38.160 ,1,1,0.,12.0,0.,12.0,0.,12.0,0.,12.0
1979-07-30 03:45:50.160 ,1,1,0.,12.0,0.,12.0,0.,12.0,0.,12.0
1979-07-30 03:46:02.160 ,0,0,0.,12.0,0.,12.0,0.,12.0,0.,12.0
1979-07-30 03:46:14.160 ,0,0,,0,,0,,0,,0
1979-07-30 03:46:31.560 ,0,0,,0,,0,,0,,0
1979-07-30 03:46:43.560 ,0,0,0.,12.0,0.,12.0,0.,12.0,0.,12.0
1979-07-30 03:46:50.160 ,0,0,0.,12.0,0.,12.0,0.,12.0,0.,12.0
1979-07-30 03:47:02.160 ,0,0,0.,12.0,0.,12.0,0.,12.0,0.,12.0
1979-07-30 03:47:14.160 ,0,1,0.,12.0,0.,12.0,0.,12.0,0.,12.0
1979-07-30 03:47:26.160 ,0,1,0.,12.0,0.,12.0,0.,12.0,0.,12.0
1979-07-30 03:47:38.160 ,0,0,0.,12.0,0.,12.0,0.,12.0,0.,12.0
1979-07-30 03:47:50.160 ,0,0,0.,12.0,0.,12.0,0.,12.0,0.,12.0
1979-07-30 03:48:02.160 ,1,1,0.,12.0,0.,12.0,0.,12.0,0.,12.0
1979-07-30 03:48:14.160 ,1,1,0.,12.0,0.,12.0,0.,12.0,0.,12.0
1979-07-30 03:48:26.160 ,1,0,0.,12.0,0.,12.0,0.,12.0,0.,12.0
1979-07-30 03:48:38.160 ,1,0,0.,12.0,0.,12.0,0.,12.0,0.,12.0
1979-07-30 03:48:50.160 ,2,1,1.,12.0,0.,12.0,0.,12.0,0.,12.0
1979-07-30 03:49:02.160 ,2,1,0.,12.0,0.,12.0,0.,12.0,0.,12.0
1979-07-30 03:49:14.160 ,2,0,0.,12.0,0.,12.0,0.,12.0,0.,12.0
1979-07-30 03:49:26.160 ,2,0,0.,12.0,0.,12.0,0.,12.0,0.,12.0
1979-07-30 03:49:38.160 ,3,1,0.,12.0,0.,12.0,0.,12.0,0.,12.0
1979-07-30 03:49:50.160 ,3,1,0.,12.0,0.,12.0,0.,12.0,0.,12.0
1979-07-30 03:50:02.160 ,3,0,0.,12.0,0.,12.0,0.,12.0,0.,12.0
1979-07-30 03:50:14.160 ,3,0,0.,12.0,0.,12.0,0.,12.0,0.,12.0
1979-07-30 03:50:26.160 ,4,1,0.,12.0,0.,12.0,0.,12.0,0.,12.0
1979-07-30 03:50:38.160 ,4,1,0.,12.0,0.,12.0,0.,12.0,0.,12.0
1979-07-30 03:50:50.160 ,4,0,0.,12.0,0.,12.0,0.,12.0,0.,12.0
1979-07-30 03:51:02.160 ,4,0,0.,12.0,0.,12.0,0.,12.0,0.,12.0
1979-07-30 03:51:14.160 ,5,1,0.,12.0,0.,12.0,0.,12.0,0.,12.0
1979-07-30 03:51:26.160 ,5,1,0.,12.0,0.,12.0,0.,12.0,0.,12.0
1979-07-30 03:51:38.160 ,5,0,0.,12.0,0.,12.0,0.,12.0,0.,12.0
1979-07-30 03:51:50.160 ,5,0,0.,12.0,0.,12.0,0.,12.0,0.,12.0
1979-07-30 03:52:02.160 ,6,1,0.,12.0,0.,12.0,0.,12.0,0.,12.0
1979-07-30 03:52:14.160 ,6,1,0.,12.0,0.,12.0,0.,12.0,0.,12.0
1979-07-30 03:52:26.160 ,6,0,0.,12.0,0.,12.0,0.,12.0,0.,12.0
1979-07-30 03:52:38.160 ,6,0,0.,12.0,0.,12.0,0.,12.0,0.,12.0
1979-07-30 03:52:50.160 ,7,1,0.,12.0,0.,12.0,0.,12.0,0.,12.0
1979-07-30 03:53:02.160 ,7,1,0.,12.0,0.,12.0,0.,12.0,0.,12.0
1979-07-30 03:53:14.160 ,7,0,0.,12.0,0.,12.0,0.,12.0,0.,12.0
1979-07-30 03:53:26.160 ,7,0,0.,12.0,0.,12.0,0.,12.0,0.,12.0
1979-07-30 03:53:38.160 ,7,1,0.,12.0,0.,12.0,0.,12.0,0.,12.0
1979-07-30 03:53:50.160 ,7,1,0.,12.0,0.,12.0,0.,12.0,0.,12.0
1979-07-30 03:54:02.160 ,7,0,0.,12.0,0.,12.0,0.,12.0,0.,12.0
1979-07-30 03:54:14.160 ,7,0,0.,12.0,0.,12.0,0.,12.0,0.,12.0
1979-07-30 03:54:26.160 ,6,1,0.,12.0,0.,12.0,0.,12.0,0.,12.0
1979-07-30 03:54:38.160 ,6,1,0.,12.0,0.,12.0,0.,12.0,0.,12.0
1979-07-30 03:54:50.160 ,6,0,0.,12.0,0.,12.0,0.,12.0,0.,12.0
1979-07-30 03:55:02.160 ,6,0,0.,12.0,0.,12.0,0.,12.0,0.,12.0
1979-07-30 03:55:14.160 ,5,1,0.,12.0,0.,12.0,0.,12.0,0.,12.0
1979-07-30 03:55:26.160 ,5,1,0.,12.0,0.,12.0,0.,12.0,0.,12.0
1979-07-30 03:55:38.160 ,5,0,0.,12.0,0.,12.0,0.,12.0,0.,12.0
1979-07-30 03:55:50.160 ,5,0,0.,12.0,0.,12.0,0.,12.0,0.,12.0
1979-07-30 03:56:02.160 ,4,1,0.,12.0,0.,12.0,0.,12.0,0.,12.0
1979-07-30 03:56:14.160 ,4,1,0.,12.0,0.,12.0,0.,12.0,0.,12.0
1979-07-30 03:56:26.160 ,4,0,0.,12.0,0.,12.0,0.,12.0,0.,12.0
1979-07-30 03:56:38.160 ,4,0,0.,12.0,0.,12.0,0.,12.0,0.,12.0
1979-07-30 03:56:50.160 ,3,1,0.,12.0,0.,12.0,0.,12.0,0.,12.0
1979-07-30 03:57:02.160 ,3,1,0.,12.0,0.,12.0,0.,12.0,0.,12.0
1979-07-30 03:57:14.160 ,3,0,0.,12.0,0.,12.0,0.,12.0,0.,12.0
1979-07-30 03:57:26.160 ,3,0,0.,12.0,0.,12.0,0.,12.0,0.,12.0
1979-07-30 03:57:38.160 ,2,1,0.,12.0,0.,12.0,0.,12.0,0.,12.0
1979-07-30 03:57:50.160 ,2,1,0.,12.0,0.,12.0,0.,12.0,0.,12.0
1979-07-30 03:58:02.160 ,2,0,0.,12.0,0.,12.0,0.,12.0,0.,12.0
1979-07-30 03:58:14.160 ,2,0,0.,12.0,0.,12.0,0.,12.0,0.,12.0
1979-07-30 03:58:26.160 ,1,1,0.,12.0,0.,12.0,0.,12.0,0.,12.0
1979-07-30 03:58:38.160 ,1,1,0.,12.0,0.,12.0,0.,12.0,0.,12.0
1979-07-30 03:58:50.160 ,1,0,0.,12.0,0.,12.0,0.,12.0,0.,12.0
1979-07-30 03:59:02.160 ,1,0,0.,12.0,0.,12.0,0.,12.0,0.,12.0
1979-07-30 03:59:14.160 ,0,1,0.,12.0,0.,12.0,0.,12.0,0.,12.0
1979-07-30 03:59:26.160 ,0,1,0.,12.0,0.,12.0,0.,12.0,0.,12.0
1979-07-30 03:59:38.160 ,0,0,0.,12.0,0.,12.0,0.,12.0,0.,12.0
1979-07-30 03:59:50.160 ,0,0,0.,12.0,0.,12.0,0.,12.0,0.,12.0
1979-07-30 04:00:02.160 ,0,1,0.,12.0,0.,12.0,0.,12.0,0.,12.0
1979-07-30 04:00:14.160 ,0,1,0.,12.0,0.,12.0,0.,12.0,0.,12.0
1979-07-30 04:00:26.160 ,0,0,0.,12.0,0.,12.0,0.,12.0,0.,12.0
1979-07-30 04:00:38.160 ,0,0,0.,12.0,0.,12.0,0.,12.0,0.,12.0
1979-07-30 04:00:50.160 ,1,1,0.,12.0,0.,12.0,0.,12.0,0.,12.0
1979-07-30 04:01:02.160 ,1,1,0.,12.0,0.,12.0,0.,12.0,0.,12.0
1979-07-30 04:01:14.160 ,1,0,0.,12.0,0.,12.0,0.,12.0,0.,12.0
1979-07-30 04:01:26.160 ,1,0,0.,12.0,0.,12.0,0.,12.0,0.,12.0
1979-07-30 04:01:38.160 ,2,1,0.,12.0,0.,12.0,0.,12.0,0.,12.0
1979-07-30 04:01:50.160 ,2,1,0.,12.0,0.,12.0,0.,12.0,0.,12.0
1979-07-30 04:02:02.160 ,2,0,0.,12.0,0.,12.0,0.,12.0,0.,12.0
1979-07-30 04:02:14.160 ,2,0,0.,12.0,0.,12.0,0.,12.0,0.,12.0
1979-07-30 04:02:26.160 ,3,1,0.,12.0,0.,12.0,0.,12.0,0.,12.0
1979-07-30 04:02:38.160 ,3,1,0.,12.0,0.,12.0,0.,12.0,0.,12.0
1979-07-30 04:02:50.160 ,3,0,0.,12.0,0.,12.0,0.,12.0,0.,12.0
1979-07-30 04:03:02.160 ,3,0,0.,12.0,0.,12.0,0.,12.0,0.,12.0
1979-07-30 04:03:14.160 ,4,1,0.,12.0,0.,12.0,0.,12.0,0.,12.0
1979-07-30 04:03:26.160 ,4,1,0.,12.0,0.,12.0,0.,12.0,0.,12.0
1979-07-30 04:03:38.160 ,4,0,0.,12.0,0.,12.0,0.,12.0,0.,12.0
1979-07-30 04:03:50.160 ,4,0,0.,12.0,0.,12.0,0.,12.0,0.,12.0
1979-07-30 04:04:02.160 ,5,1,0.,12.0,0.,12.0,0.,12.0,0.,12.0
1979-07-30 04:04:14.160 ,5,1,0.,12.0,0.,12.0,0.,12.0,0.,12.0
1979-07-30 04:04:26.160 ,0,0,0.,12.0,0.,12.0,0.,12.0,0.,12.0
1979-07-30 04:04:38.160 ,0,0,0.,12.0,0.,12.0,0.,12.0,0.,12.0
1979-07-30 04:04:50.160 ,6,1,0.,12.0,0.,12.0,0.,12.0,0.,12.0
1979-07-30 04:05:02.160 ,6,1,0.,12.0,0.,12.0,0.,12.0,0.,12.0
1979-07-30 04:05:14.160 ,6,0,0.,12.0,0.,12.0,0.,12.0,0.,12.0
1979-07-30 04:05:26.160 ,6,0,0.,12.0,0.,12.0,0.,12.0,0.,12.0
1979-07-30 04:05:38.160 ,6,0,0.,12.0,0.,12.0,0.,12.0,0.,12.0
1979-07-30 04:05:50.160 ,6,0,,0,,0,,0,,0
1979-07-30 04:06:02.160 ,7,0,0.,12.0,0.,12.0,0.,12.0,0.,12.0
1979-07-30 04:06:14.160 ,7,0,0.,12.0,0.,12.0,0.,12.0,0.,12.0
1979-07-30 04:06:26.160 ,7,1,0.,12.0,0.,12.0,0.,12.0,0.,12.0
1979-07-30 04:06:38.160 ,7,1,0.,12.0,0.,12.0,0.,12.0,0.,12.0
1979-07-30 04:06:50.160 ,7,0,0.,12.0,0.,12.0,0.,12.0,0.,12.0
1979-07-30 04:07:02.160 ,7,0,0.,12.0,0.,12.0,0.,12.0,0.,12.0
1979-07-30 04:07:14.160 ,6,1,0.,12.0,0.,12.0,0.,12.0,0.,12.0
1979-07-30 04:07:26.160 ,6,1,0.,12.0,0.,12.0,0.,12.0,0.,12.0
1979-07-30 04:07:38.160 ,6,0,0.,12.0,0.,12.0,0.,12.0,0.,12.0
1979-07-30 04:07:50.160 ,6,0,0.,12.0,0.,12.0,0.,12.0,0.,12.0
1979-07-30 04:08:02.160 ,5,1,0.,12.0,0.,12.0,0.,12.0,0.,12.0
1979-07-30 04:08:14.160 ,5,1,0.,12.0,0.,12.0,0.,12.0,0.,12.0
1979-07-30 04:08:26.160 ,5,0,0.,12.0,0.,12.0,0.,12.0,0.,12.0
1979-07-30 04:08:38.160 ,5,0,0.,12.0,0.,12.0,0.,12.0,0.,12.0
1979-07-30 04:08:50.160 ,4,1,0.,12.0,0.,12.0,0.,12.0,0.,12.0
1979-07-30 04:09:02.160 ,4,1,0.,12.0,0.,12.0,0.,12.0,0.,12.0
1979-07-30 04:09:14.160 ,4,0,0.,12.0,0.,12.0,0.,12.0,0.,12.0
1979-07-30 04:09:26.160 ,4,0,0.,12.0,0.,12.0,0.,12.0,0.,12.0
1979-07-30 04:09:38.160 ,3,1,0.,12.0,0.,12.0,0.,12.0,0.,12.0
1979-07-30 04:09:50.160 ,3,1,0.,12.0,0.,12.0,0.,12.0,0.,12.0
1979-07-30 04:10:02.160 ,3,0,0.,12.0,0.,12.0,0.,12.0,0.,12.0
1979-07-30 04:10:14.160 ,3,0,0.,12.0,0.,12.0,0.,12.0,0.,12.0
1979-07-30 04:10:26.160 ,2,1,0.,12.0,0.,12.0,0.,12.0,0.,12.0
1979-07-30 04:10:38.160 ,2,1,0.,12.0,0.,12.0,0.,12.0,0.,12.0
1979-07-30 04:10:50.160 ,2,0,0.,12.0,0.,12.0,0.,12.0,0.,12.0
1979-07-30 04:11:02.160 ,2,0,0.,12.0,0.,12.0,0.,12.0,0.,12.0
1979-07-30 04:11:14.160 ,1,1,0.,12.0,0.,12.0,0.,12.0,0.,12.0
1979-07-30 04:11:26.160 ,1,1,0.,12.0,0.,12.0,0.,12.0,0.,12.0
1979-07-30 04:11:38.160 ,1,0,0.,12.0,0.,12.0,0.,12.0,0.,12.0
1979-07-30 04:11:50.160 ,1,0,0.,12.0,0.,12.0,0.,12.0,0.,12.0
1979-07-30 04:12:02.160 ,0,1,0.,12.0,0.,12.0,0.,12.0,0.,12.0
1979-07-30 04:12:14.160 ,0,1,0.,12.0,0.,12.0,0.,12.0,0.,12.0
1979-07-30 04:12:26.160 ,0,0,0.,12.0,0.,12.0,0.,12.0,0.,12.0
1979-07-30 04:12:38.160 ,0,0,0.,12.0,0.,12.0,0.,12.0,0.,12.0
1979-07-30 04:12:50.160 ,0,1,0.,12.0,0.,12.0,0.,12.0,0.,12.0
1979-07-30 04:13:02.160 ,0,1,0.,12.0,0.,12.0,0.,12.0,0.,12.0
1979-07-30 04:13:14.160 ,0,0,0.,12.0,0.,12.0,0.,12.0,0.,12.0
1979-07-30 04:13:26.160 ,0,0,0.,12.0,0.,12.0,0.,12.0,0.,12.0
1979-07-30 04:13:38.160 ,1,1,0.,12.0,0.,12.0,0.,12.0,0.,12.0
1979-07-30 04:13:50.160 ,1,1,0.,12.0,0.,12.0,0.,12.0,0.,12.0
1979-07-30 04:14:02.160 ,1,0,0.,12.0,0.,12.0,0.,12.0,0.,12.0
1979-07-30 04:14:14.160 ,1,0,0.,12.0,0.,12.0,0.,12.0,0.,12.0
1979-07-30 04:14:26.160 ,2,1,0.,12.0,0.,12.0,0.,12.0,0.,12.0
1979-07-30 04:14:38.160 ,2,1,0.,12.0,0.,12.0,0.,12.0,0.,12.0
1979-07-30 04:14:50.160 ,2,0,0.,12.0,0.,12.0,0.,12.0,0.,12.0
1979-07-30 04:15:02.160 ,2,0,0.,12.0,0.,12.0,0.,12.0,0.,12.0
1979-07-30 04:15:14.160 ,3,1,0.,12.0,0.,12.0,0.,12.0,0.,12.0
1979-07-30 04:15:26.160 ,3,1,0.,12.0,0.,12.0,0.,12.0,0.,12.0
1979-07-30 04:15:38.160 ,3,0,0.,12.0,0.,12.0,0.,12.0,0.,12.0
1979-07-30 04:15:50.160 ,3,0,0.,12.0,0.,12.0,0.,12.0,0.,12.0
1979-07-30 04:16:02.160 ,4,1,0.,12.0,0.,12.0,0.,12.0,0.,12.0
1979-07-30 04:16:14.160 ,4,1,0.,12.0,0.,12.0,0.,12.0,0.,12.0
1979-07-30 04:16:26.160 ,4,0,0.,12.0,0.,12.0,0.,12.0,0.,12.0
1979-07-30 04:16:38.160 ,4,0,0.,12.0,0.,12.0,0.,12.0,0.,12.0
1979-07-30 04:16:50.160 ,5,1,0.,12.0,0.,12.0,0.,12.0,0.,12.0
1979-07-30 04:17:02.160 ,5,1,0.,12.0,0.,12.0,0.,12.0,0.,12.0
1979-07-30 04:17:14.160 ,5,0,0.,12.0,0.,12.0,0.,12.0,0.,12.0
1979-07-30 04:17:26.160 ,5,0,0.,12.0,0.,12.0,0.,12.0,0.,12.0
1979-07-30 04:17:38.160 ,6,1,0.,12.0,0.,12.0,0.,12.0,0.,12.0
1979-07-30 04:17:50.160 ,6,1,0.,12.0,0.,12.0,0.,12.0,0.,12.0
1979-07-30 04:18:02.160 ,6,0,0.,12.0,0.,12.0,0.,12.0,0.,12.0
1979-07-30 04:18:14.160 ,6,0,0.,12.0,0.,12.0,0.,12.0,0.,12.0
1979-07-30 04:18:26.160 ,7,0,0.,12.0,0.,12.0,0.,12.0,0.,12.0